STARLINK-32309, 61676

Orbit data source: Space-Track

STARLINK-32309, 61676 is a payload satellite owned by SpaceX/Seattle (US) in LEO that was launched on Sat, 26 Oct 2024 UTC via an FALCON 9 launch vehicle from the Air Force Eastern Test Range (AFETR). Payload-class satellites include a variety of spacecraft equipped with specific instruments for various scientific and technological missions. These include communications satellites like Starlink; space stations such as the ISS; scientific satellites like the Hubble; Earth observation satellites from companies like Planet Labs, Umbra, and HawkEye 360; GPS; miniature CubeSats for education and research; and military/defense satellites.

Loading next visibility...
Identifier
61676, 2024-193R
Orbit
LEO
Country
Flag of USUS
Related business
Manufacturer
SpaceX/Seattle
Mission
Operational Commercial Communications
Bus & Motor
STARLINK V2M, Unknown motor
Mass
730 kg wet, ~700 kg dry
Launch date (UTC)
2024-10-26 (2 years ago)
Launch vehicle
FALCON 9
Launch site
Air Force Eastern Test Range (AFETR)
Object type
Payload
Rocket body
Debris
Shape & HBR
Box + 2 Pan, 17.7 m
Radar Cross Section
33.884 m², Large (>1 m²)

Expand to show TLE details & history
Last TLE update: 10 hours ago

TLE from 10 hours ago
0 STARLINK-32309
1 61676U 24193R   26125.46299493  .00003601  00000-0  13363-3 0  9996
2 61676  53.1576 186.9573 0000882  62.0827 298.0263 15.30203036 85227
Epoch: 2026-05-05T11:06Z
TLE epoch observation values (Epoch: 2026-05-05T11:06:42.761Z)
Latitude
-0.00004°
Longitude
156.94162°
Altitude
475.821 km
Speed
7.629 km/s
True Right ascension
12h 27m 49s
True Declination
0° 00' 00"
Sunlit
Object was in full shadow at epoch
Visualization orbit readout
Latitude
Unknown
Longitude
Unknown
Altitude
Unknown
Speed
Unknown
Apparent Right ascension
Unknown
Apparent Declination
Unknown
Sunlit
N/A
Visualization observer readout
Local Sidereal Time
05:23:37
Azimuth
Unknown
Elevation
Unknown
Doppler factor
Unknown
Orbital elements
Apogee altitude
476.067 km
Perigee altitude
474.858 km
Semi-major axis
6,853.6 km
Eccentricity
0.00009
Inclination
53.1576°
RAAN
186.9573°
Arg. of periapsis
62.0827°
True anomaly
298.01738°
Mean anomaly
298.0263°
Eccentric anomaly
298.02184°
Mean motion
3.8253 °/min
Orbital period
94.11 mins
BSTAR
0.00013363
Loading maneuver chart data...
Computing Atmospheric mass density...
Loading historical data...
Loading historical data...
Loading historical data...
Loading historical data...
Loading historical data...
Loading historical data...
Loading historical data...

Documentation

Showing up to 5 results
|